Regional Weather Roundup
Issued by NWS Newport/Morehead, NC

Current Version | Previous Version | Graphics & Text | Print | Product List | Glossary Off
Versions: 1 2 3 4 5 6 7 8 9 10 11 12 13 14 15 16 17 18 19 20 21 22 23 24 25 26 27 28 29 30 31 32 33 34 35 36 37 38 39 40 41 42 43 44 45 46 47 48 49 50

000
ASUS42 KMHX 071713
RWRMHX
WEATHER ROUNDUP FOR EASTERN NORTH CAROLINA
NATIONAL WEATHER SERVICE NEWPORT/MOREHEAD CITY NC
1200 PM EST SUN FEB 07 2016

NOTE: "FAIR" INDICATES FEW OR NO CLOUDS BELOW 12,000 FEET
WITH NO SIGNIFICANT WEATHER AND/OR OBSTRUCTIONS TO VISIBILITY

NCZ015>017-031-032-045>047-102-103-071800-
NORTH COAST

CITY           SKY/WX    TMP DP  RH WIND       PRES   REMARKS
EDENTON        LGT RAIN  41  33  73 NE13G21   29.96F
ELIZABETH CITY LGT RAIN  42  35  76 N24G31    29.97F
KITTY HAWK     DRIZZLE   45  40  83 N13G22    29.92F
MANTEO         LGT RAIN  45  42  88 NE22G30   29.95S

$$

NCZ045>047-081-094-103-104-071800-
CENTRAL COAST

CITY           SKY/WX    TMP DP  RH WIND       PRES   REMARKS
FRISCO         RAIN      47  45  93 NE20G36   29.80F
SWANQUARTER    NOT AVBL

$$

NCZ095-097-098-100-101-071800-
SOUTHERN COAST

CITY           SKY/WX    TMP DP  RH WIND       PRES   REMARKS
BEAUFORT       LGT RAIN  42  40  92 N24G45    29.76F
CEDAR ISLAND   NOT AVBL
JACKSONVILLE   RAIN      36  32  85 N20G25    29.87F FOG
PINEY ISLAND   LGT RAIN N/A N/A N/A N26G43    29.77F
WILMINGTON     HVY RAIN  35  31  85 N25G35    29.83F FOG


$$

NCZ011>013-027>030-043-044-078>080-089-090>093-098-071800-
COASTAL PLAIN

CITY           SKY/WX    TMP DP  RH WIND       PRES   REMARKS
AHOSKIE        CLOUDY    38  28  65 N15G22    30.02F
CLINTON        RAIN      35  33  95 N16       29.97F
ELIZABETHTOWN  RAIN      35  34  96 N6G17     29.95F
GOLDSBORO      CLOUDY    36  36 100 N12       29.95F
GREENVILLE     LGT RAIN  36  32  87 N14       29.98F
HAVELOCK       LGT RAIN  40  36  86 N25G36    29.82F
KENANSVILLE    LGT SNOW  34  32  93 N10G20    29.96F
KINSTON        RAIN      36  32  87 N17       29.93F
NEW BERN       RAIN      38  34  85 N18G32    29.86F FOG
RICHLANDS      CLOUDY    36  27  69 NW15G28   29.91S
ROCKY MOUNT    LGT RAIN  35  30  82 N12       30.01F
WASHINGTON     LGT RAIN  37  32  85 N13G18    29.92F
WHITEVILLE     MIX PCPN  35  33  92 N12G17    29.90F

$$

AMZ130-135-150-152-154-156-158-170-250-252-270-ANZ085-086-088-633-658-670-071800-
MARINE OBSERVATIONS

STATION/POSITION TIME  TEMP    WIND        PRES    WAVE   SWELL
                       AIR SEA DIR/SP/G            HT/PER HT/PER
                 (UTC) (F)     (DEG/KT/KT) (MB)    (FT/S) (FT/S)
CHESAPEAKE LIGHT 1700   43      30/ 25/ 31 1016.2
64 E VA BEACH    1650   51 54   40/ 25/ 31 1013.6    8/ 6   3/10
DUCK             1600   45 44   20/ 27/ 32 1015.1
2 E DUCK         1611      44                N/A     7/ 6   2/11
OREGON INLET     1600   47 45   10/ 18/ 25 1013.4
13E OREGON INLT  1700      47                N/A    10/ 7   2/11
HATTERAS CG      1600   47 48   20/ 27/ 38 1010.4
DIAMOND BUOY     1650   56 70   20/ 33/ 41 1006.9   12/ 7
CAPE LOOKOUT     NOT AVBL
BEAUFORT LAB     1600   41 48   10/ 24/ 31 1008.8
30 SE NEW RVR IN 1608   45 64              1002.9
30 SE NEW RVR IN 1625      64                N/A    14/ 7   2/11
27 SE WRIGHTSVLE 1608   46      30/ 39     1004.2
5 SE WRIGHTSVLE  1608   39 53   10/ 33/ 43 1008.7
225 S CAPE HAT   1650   68 69  220/ 27/ 37   N/A     9/11   3/11
41 SE CHARLESTON 1650   47 66  340/ 27/ 35 1009.3   10/ 8   5/ 9

$$



USA.gov is the U.S. government's official web portal to all federal, state and local government web resources and services.